Weather in Ust-Sakhray

Russia / Republic of Adygea     44°12′29″N   40°16′47″E
temp.,
°C
wind,
m/s
gust,
m/s
humid.,
%
clouds,
%
prec.,
mm/h
press.,
hPa
HPBL,
m
18 may, tue
tue1800:00+12s2297100 4.2 101065
03:00+12sw1195100 7.0 101116
06:00+11s119598 0.1 101140
09:00+17n22620 0.3 1011828
12:00+17n337411 1.4 1011643
15:00+18ne32765 3.2 1010639
18:00+16ene24912 1.1 1011259
21:00+12sse22961 1.4 101131
19 may, wed
wed1900:00+10s229397 0.0 101132
03:00+10w2294100 0.5 100943
06:00+11s1197100 4.8 101038
09:00+11wnw4897100 7.4 1012665
12:00+18w39434 5.1 10122123
15:00+18wsw411328 5.1 10132251
18:00+15sw38500 0.0 10151555
21:00+8s33690 0.0 101849
20 may, thu
thu2000:00+7s33675 0.0 101844
03:00+7s226587 0.0 101733
06:00+8sse225913 0.0 101743
09:00+18e223469 0.0 1015603
12:00+22ne222967 0.0 10131261
15:00+23ne32355 0.0 10121174
18:00+20e2464100 0.0 1012289
21:00+13sse3282100 0.0 101236
21 may, fri
fri2100:00+13s32464 0.0 101138
03:00+14s32425 0.0 101140
06:00+15s33560 0.0 101147
09:00+26ese243144 0.0 1009431
12:00+30e22245 0.0 10081005
15:00+32wnw162222 0.0 10073173
18:00+26nne11710 0.0 100729
21:00+19s32675 0.0 100936
22 may, sat
sat2200:00+17s3245100 0.0 100934
03:00+18s3236100 0.0 100934
06:00+16s3271100 0.4 100939
09:00+24sw2259100 0.6 1008134
12:00+29nnw3333100 0.0 1008906
15:00+27nne3346100 0.0 1007809
18:00+22sse238823 1.1 1009110
21:00+18ssw3382100 1.1 100940